Regional Weather Roundup
Issued by NWS State College, PA

Home | Current Version | Previous Version | Text Only | Print | Product List | Glossary Off
Versions: 1 2 3 4 5 6 7 8 9 10 11 12 13 14 15 16 17 18 19 20 21 22 23 24 25 26 27 28 29 30 31 32 33 34 35 36 37 38 39 40 41 42 43 44 45 46 47 48 49 50

000
ASUS41 KCTP 122210
RWRCTP

REGIONAL WEATHER ROUNDUP
NATIONAL WEATHER SERVICE STATE COLLEGE PA
500 PM EST FRI FEB 12 2016

Note: "fair" indicates few or no clouds below 12,000 feet with no
significant weather and/or obstructions to visibility.

* = STATION THAT DOES NOT REPORT PRECIPITATION /E.G. RAIN...SNOW...ETC/
    THUNDER OR FOG.

PAZ002>004-007>009-013>016-020>023-029>032-122300-
WESTERN PENNSYLVANIA

CITY           SKY/WX    TMP DP  RH WIND       PRES   REMARKS
ERIE           SNOW      21  14  74 SW15      29.89F VSB 1/2 WCI   8
MEADVILLE      LGT SNOW  18  11  74 SW10      29.87F WCI   6
FRANKLIN*      CLOUDY    16  10  79 SW9G16    29.90S WCI   4
NEW CASTLE     LGT SNOW  19  14  79 SW7       29.94S WCI  10
BEAVER COUNTY  LGT SNOW  19  14  79 SW7       29.93F WCI  10
BUTLER*        CLOUDY    18  12  79 SW9       29.96S WCI   6
PITTSBURGH INT LGT SNOW  19  12  74 SW7       29.94F WCI  10
PITTSBURGH     LGT SNOW  20  13  74 SW8       29.94S HAZE    WCI  10
INDIANA*       CLOUDY    18  14  86 W10       29.94F FOG     WCI   6
LATROBE        LGT SNOW  18  16  93 SW10      29.96F WCI   6
WASHINGTON CO* CLOUDY    19  12  73 SW7       29.96S WCI  10
$$

PAZ004>006-010>012-017>019-024>028-033>037-041-042-045-046-049>053-122300-
CENTRAL PENNSYLVANIA

CITY           SKY/WX    TMP DP  RH WIND       PRES   REMARKS
BRADFORD       LGT SNOW  14   8  77 VRB5      29.81S WCI   6
DUBOIS         LGT SNOW  14   9  80 SW10      29.85S WCI   1
CLEARFIELD     LGT SNOW  16   9  74 SW12      29.89F WCI   3
JOHNSTOWN      LGT SNOW  13   7  77 W7        29.83F VSB 1   WCI   3
ALTOONA        LGT SNOW  18  12  77 W9        29.91F WCI   7
STATE COLLEGE  LGT SNOW  18  12  79 SW6       29.92F FOG     WCI   9
WILLIAMSPORT   LGT SNOW  21  11  65 W5        29.97F WCI  15
SELINSGROVE    CLOUDY    21  11  65 S8        30.00F WCI  11
FT INDIANTOWN  CLOUDY    20  11  67 SW8       30.01F WCI  10
CAPITAL CITY   CLOUDY    23   9  55 CALM      30.02F
HARRISBURG     CLOUDY    23  10  57 W7        30.02F WCI  15
YORK           CLOUDY    23   9  55 SW6       30.00F
$$

PAZ038>040-043-044-047-048-054-055-060>062-067>071-122300-
EASTERN PENNSYLVANIA

CITY           SKY/WX    TMP DP  RH WIND       PRES   REMARKS
SCRANTON       CLOUDY    19   5  54 SW12      29.94F WCI   7
MOUNT POCONO   CLOUDY    13   4  67 SW8       29.86F HAZE    WCI   2
ALLENTOWN      CLOUDY    21   6  52 SW12      30.01F WCI   9
QUAKERTOWN*    CLOUDY    21   5  49 W5        30.02F WCI  15
READING        CLOUDY    21   8  57 SW6       30.02F WCI  13
LANCASTER      CLOUDY    22   7  52 W5        30.01F
COATESVILLE    FLURRIES  19  10  68 VRB5      30.01F WCI  13
POTTSTOWN      CLOUDY    21   5  50 W5        30.04F WCI  15
BLUE BELL        N/A     23   7  50 W5        30.02F
DOYLESTOWN     CLOUDY    20   1  43 SW7       30.01F WCI  11
WILLOW GROVE   NOT AVBL
NORTH PHILA    CLOUDY    24   5  44 W9        30.06F WCI  14
PHILADELPHIA   CLOUDY    25   2  37 SW7       30.06F
$$



USA.gov is the U.S. government's official web portal to all federal, state and local government web resources and services.